Regional Weather Roundup
Issued by NWS

Home | Current Version | Previous Version | Text Only | Print | Product List | Glossary Off
Versions: 1 2 3 4 5 6 7 8 9 10 11 12 13 14 15 16 17 18 19 20 21 22 23 24 25 26 27 28 29 30 31 32 33 34 35 36 37 38 39 40 41 42 43 44 45 46 47 48 49 50

000
ASUS43 KIND 062309
RWRIN

WEATHER ROUNDUP FOR INDIANA
NATIONAL WEATHER SERVICE INDIANAPOLIS IN
700 PM EDT WED MAY 06 2015

NOTE: "FAIR" INDICATES FEW OR NO CLOUDS BELOW 12,000 FEET WITH NO
SIGNIFICANT WEATHER AND/OR OBSTRUCTIONS TO VISIBILITY.

* - STATION DOES NOT REPORT WEATHER SUCH AS PRECIPITATION OR FOG.

+ - STATION NOT QUALITY CONTROLLED BY THE NATIONAL WEATHER SERVICE.
    USE DATA WITH CAUTION...ESPECIALLY DEWPOINT AND RELATIVE
    HUMIDITY OBSERVATIONS.

INZ001>003-010>013-019-020-070000-
NORTHWEST INDIANA

CITY           SKY/WX    TMP DP  RH WIND       PRES   REMARKS
GARY /AIRPORT/ MOSUNNY   61 N/A N/A NE7       30.09F HAZE
KNOX *+        SUNNY     82  16   8 SW7       30.08S
LA PORTE +     SUNNY     83  53  34 SW7       30.09F
MICHIGAN CITY+ SUNNY     77  54  44 NE3       30.08F
MONTICELLO +   MOSUNNY   82  53  37 S5        30.07F
VALPARAISO     SUNNY     81  53  37 S7        30.08F

$$

LMZ046-743>745-070000-
SOUTHERN LAKE MICHIGAN

STATION/POSITION TIME  TEMP    WIND        PRES    WAVE
                       AIR SEA DIR/SP/G            HT
                 (UTC) (F)     (DEG/KT/KT) (MB)    (FT)
BURNS HARBOR     2300   58      60/  7/  9 1019.3S
MICHIGAN CITY    2300   57      30/ 10/ 12   N/A
5NW MICH CITY    2300   54 54   70/  8/ 10   N/A     1

$$

INZ004-005-014>016-021>024-070000-
NORTH CENTRAL INDIANA

CITY           SKY/WX    TMP DP  RH WIND       PRES   REMARKS
ELKHART        SUNNY     81  54  39 S7        30.10F
GOSHEN         SUNNY     80  62  54 E3        30.10F
LOGANSPORT +   SUNNY     81  45  28 S3        30.09F
PERU/GRISSOM   MOSUNNY   83  58  42 SE6       30.08F
ROCHESTER +    SUNNY     82  54  36 SE3       30.10S
SOUTH BEND     MOSUNNY   81  57  43 S5        30.09F
WARSAW +       SUNNY     79  59  50 E7        30.10F

$$

INZ006>009-017-018-025>027-070000-
NORTHEAST INDIANA

CITY           SKY/WX    TMP DP  RH WIND       PRES   REMARKS
ANGOLA *+      SUNNY     73  63  68 SE7       30.13F
AUBURN +       SUNNY     75  61  60 E8        30.13F
FORT WAYNE     MOSUNNY   79  58  48 SE5       30.12F
HUNTINGTON +   SUNNY     80  54  40 CALM      30.10F

$$

INZ028-029-035-036-043>045-051>053-070000-
WEST CENTRAL INDIANA

CITY           SKY/WX    TMP DP  RH WIND       PRES   REMARKS
CRAWFORDSVL +  MOSUNNY   81  39  22 S7        30.08F
GREENCASTLE +  MOSUNNY   81  45  28 CALM      30.09F
LAFAYETTE      MOSUNNY   81  50  33 S5        30.07F
TERRE HAUTE    MOSUNNY   82  53  36 S7        30.07F

$$

INZ030>032-037>040-046>048-054>057-064-065-070000-
CENTRAL INDIANA

CITY           SKY/WX    TMP DP  RH WIND       PRES   REMARKS
CP ATTERBURY + SUNNY     81  50  34 CALM      30.10F
COLUMBUS       SUNNY     82  45  26 CALM      30.08F
FRANKFORT +    SUNNY     83  51  32 S5        30.11S
GREENWOOD *+   SUNNY     82  48  30 E5        30.10F
INDIANAPOLIS   MOSUNNY   81  52  36 SW6       30.08F
-EAGLE CREEK   SUNNY     82  51  34 VRB6      30.08F
KOKOMO *+      SUNNY     82  54  36 S6        30.09F
MARION +       SUNNY     82  47  29 SW5       30.11S
MT COMFORT *+  SUNNY     84  27  12 SW5       30.10F
SHELBYVILLE    SUNNY     86  50  28 CALM      30.09F
ZIONSVILLE +   SUNNY     83  48  29 CALM      30.10F

$$

INZ033-034-041-042-049-050-058-059-070000-
EAST CENTRAL INDIANA

CITY           SKY/WX    TMP DP  RH WIND       PRES   REMARKS
MUNCIE         SUNNY     84  49  29 CALM      30.11F

$$

INZ060-061-067>069-081>083-085>088-070000-
SOUTHWEST INDIANA

CITY           SKY/WX    TMP DP  RH WIND       PRES   REMARKS
EVANSVILLE     MOSUNNY   82  54  37 E6        30.07F
HUNTINGBURG *+ SUNNY     82  55  39 SE6       30.08F
WASHINGTON +   SUNNY     82  46  28 SE10      30.06F

$$

INZ062-063-066-070>080-084-089>092-070000-
SOUTH CENTRAL AND SOUTHEAST INDIANA

CITY           SKY/WX    TMP DP  RH WIND       PRES   REMARKS
BLOOMINGTON    SUNNY     83  52  34 S5        30.09F
MADISON *+     SUNNY     81  52  36 CALM      30.11F
NORTH VERNON + SUNNY     82  48  30 CALM      30.10F
SEYMOUR +      SUNNY     86  54  32 S3        30.08F

$$



USA.gov is the U.S. government's official web portal to all federal, state and local government web resources and services.